Weather History for KFOT - November, 2012

Change the Weather History Date:

Monday, November 26, 2012

  Actual Average (KEKA) Record (KEKA)
Temperature  
Mean Temperature 52 °F 49 °F  
Max Temperature 57 °F 56 °F 73 °F (1959)
Min Temperature 48 °F 42 °F 32 °F (1994)
Degree Days  
Heating Degree Days 12 16  
Month to date heating degree days 363  
Since 1 July heating degree days 1357  
Cooling Degree Days 0 0  
Month to date cooling degree days 0  
Year to date cooling degree days 0  
Growing Degree Days 2 (Base 50)    
Moisture  
Dew Point 50 °F    
Average Humidity 98    
Maximum Humidity 100    
Minimum Humidity 82    
Precipitation  
Precipitation 0.00 in 0.22 in 2.86 in (1899)
Month to date precipitation 4.67  
Year to date precipitation 31.27  
Since 1 July precipitation 7.99  
Snow  
Snow - 0.00 in 0.00 in (2002)
Month to date snowfall 0.0  
Since 1 July snowfall 0.0  
Since 1 September snowfall 0.0  
Snow Depth -    
Sea Level Pressure  
Sea Level Pressure 30.02 in    
Wind  
Wind Speed 2 mph ()    
Max Wind Speed 13 mph    
Max Gust Speed -    
Visibility 9.1 miles    
Events      
T = Trace of Precipitation, MM = Missing Value Source: Averaged Metar Reports

Daily Weather History Graph

Daily Weather History Graph

Search for Another Location

Airport or City:

Trip Planner

Search our weather history database for the weather conditions in past years. The results will help you decide how hot, cold, wet, or windy it might be!

Date:

Astronomy

Nov. 26, 2012 Rise Set
Actual Time 7:16 AM PST 4:51 PM PST
Civil Twilight 6:46 AM PST 5:21 PM PST
Nautical Twilight 6:12 AM PST 5:55 PM PST
Astronomical Twilight 5:39 AM PST 6:28 PM PST
Moon 3:47 PM PST (11/26) 5:31 AM PST (11/26)
Length of Visible Light 10h 35m
Length of Day
9h 35m
Waxing Gibbous, 97% of the Moon is Illuminated
Nov 26
Waxing Gibbous
Nov 28
Full
Dec 6
Last Quarter
Dec 13
New
Dec 19
First Quarter

Hourly Weather History & Observations

Time (PST) Temp. Dew Point Humidity Pressure Visibility Wind Dir Wind Speed Gust Speed Precip Events Conditions
12:15 AM 50.0 °F 50.0 °F 100% 30.02 in 10.0 mi Calm Calm - N/A   Overcast
12:35 AM 50.0 °F 50.0 °F 100% 30.02 in 10.0 mi Calm Calm - N/A   Overcast
12:55 AM 50.0 °F 50.0 °F 100% 30.01 in 10.0 mi Calm Calm - N/A   Overcast
1:15 AM 50.0 °F 50.0 °F 100% 30.01 in 9.0 mi Calm Calm - N/A   Overcast
1:35 AM 50.0 °F 50.0 °F 100% 30.00 in 5.0 mi Calm Calm - N/A   Overcast
1:55 AM 50.0 °F 50.0 °F 100% 30.00 in 5.0 mi Calm Calm - N/A   Overcast
2:15 AM 50.0 °F 50.0 °F 100% 30.00 in 0.5 mi Calm Calm - N/A   Overcast
2:35 AM 50.0 °F 50.0 °F 100% 29.99 in 10.0 mi SE 5.8 mph - N/A   Overcast
2:55 AM 50.0 °F 50.0 °F 100% 29.98 in 10.0 mi ESE 9.2 mph - N/A   Overcast
3:15 AM 50.0 °F 50.0 °F 100% 29.99 in 10.0 mi ESE 8.1 mph - N/A   Overcast
3:35 AM 50.0 °F 50.0 °F 100% 29.99 in 10.0 mi Calm Calm - N/A   Overcast
3:55 AM 50.0 °F 50.0 °F 100% 29.99 in 10.0 mi Calm Calm - N/A   Overcast
4:15 AM 50.0 °F 50.0 °F 100% 29.99 in 10.0 mi Calm Calm - N/A   Overcast
4:35 AM 50.0 °F 50.0 °F 100% 30.00 in 10.0 mi Calm Calm - N/A   Overcast
4:55 AM 50.0 °F 50.0 °F 100% 30.00 in 10.0 mi Calm Calm - N/A   Overcast
5:15 AM 50.0 °F 50.0 °F 100% 30.01 in 10.0 mi Calm Calm - N/A   Overcast
5:35 AM 50.0 °F 50.0 °F 100% 30.01 in 10.0 mi Calm Calm - N/A   Overcast
5:55 AM 48.2 °F 48.2 °F 100% 30.02 in 6.0 mi Calm Calm - N/A   Overcast
6:15 AM 48.2 °F 48.2 °F 100% 30.02 in 3.0 mi Calm Calm - N/A   Overcast
6:35 AM 48.2 °F 48.2 °F 100% 30.02 in 0.5 mi Calm Calm - N/A   Overcast
6:55 AM 48.2 °F 48.2 °F 100% 30.02 in 7.0 mi Calm Calm - N/A   Overcast
7:15 AM 48.2 °F 48.2 °F 100% 30.02 in 10.0 mi East 4.6 mph - N/A   Overcast
7:35 AM 48.2 °F 48.2 °F 100% 30.02 in 10.0 mi Calm Calm - N/A   Overcast
7:55 AM 48.2 °F 48.2 °F 100% 30.03 in 9.0 mi Calm Calm - N/A   Overcast
8:15 AM 48.2 °F 48.2 °F 100% 30.03 in 10.0 mi Calm Calm - N/A   Overcast
8:35 AM 48.2 °F 48.2 °F 100% 30.03 in 10.0 mi Calm Calm - N/A   Overcast
8:55 AM 48.2 °F 48.2 °F 100% 30.04 in 10.0 mi Calm Calm - N/A   Overcast
9:15 AM 48.2 °F 48.2 °F 100% 30.04 in 10.0 mi Calm Calm - N/A   Overcast
9:35 AM 48.2 °F 48.2 °F 100% 30.04 in 10.0 mi Calm Calm - N/A   Overcast
9:55 AM 50.0 °F 50.0 °F 100% 30.04 in 10.0 mi Calm Calm - N/A   Overcast
10:15 AM 50.0 °F 50.0 °F 100% 30.04 in 10.0 mi Calm Calm - N/A   Overcast
10:35 AM 50.0 °F 50.0 °F 100% 30.04 in 10.0 mi Calm Calm - N/A   Overcast
10:55 AM 51.8 °F 51.8 °F 100% 30.04 in 10.0 mi Calm Calm - N/A   Mostly Cloudy
11:15 AM 53.6 °F 53.6 °F 100% 30.04 in 10.0 mi Calm Calm - N/A   Mostly Cloudy
11:35 AM 53.6 °F 51.8 °F 94% 30.04 in 10.0 mi Calm Calm - N/A   Scattered Clouds
11:55 AM 53.6 °F 51.8 °F 94% 30.03 in 10.0 mi Calm Calm - N/A   Partly Cloudy
12:15 PM 55.4 °F 51.8 °F 88% 30.02 in 10.0 mi Calm Calm - N/A   Clear
12:35 PM 55.4 °F 51.8 °F 88% 30.02 in 10.0 mi NW 4.6 mph - N/A   Clear
12:55 PM 57.2 °F 51.8 °F 82% 30.01 in 10.0 mi NNW 4.6 mph - N/A   Clear
1:15 PM 57.2 °F 53.6 °F 88% 30.01 in 10.0 mi NW 5.8 mph - N/A   Clear
1:35 PM 57.2 °F 53.6 °F 88% 30.01 in 10.0 mi NW 6.9 mph - N/A   Clear
1:55 PM 57.2 °F 53.6 °F 88% 30.00 in 10.0 mi NW 6.9 mph - N/A   Clear
2:15 PM 57.2 °F 53.6 °F 88% 30.00 in 10.0 mi North 8.1 mph - N/A   Clear
2:35 PM 57.2 °F 53.6 °F 88% 30.00 in 10.0 mi NNW 9.2 mph - N/A   Clear
2:55 PM 55.4 °F 53.6 °F 94% 30.00 in 10.0 mi NNW 10.4 mph - N/A   Clear
3:15 PM 55.4 °F 53.6 °F 94% 30.00 in 10.0 mi NNW 11.5 mph - N/A   Clear
3:35 PM 55.4 °F 53.6 °F 94% 30.00 in 10.0 mi NNW 12.7 mph - N/A   Clear
3:55 PM 53.6 °F 53.6 °F 100% 30.01 in 10.0 mi NNW 9.2 mph - N/A   Clear
4:15 PM 53.6 °F 53.6 °F 100% 30.01 in 10.0 mi NW 10.4 mph - N/A   Clear
4:35 PM 51.8 °F 51.8 °F 100% 30.02 in 10.0 mi NW 6.9 mph - N/A   Clear
4:55 PM 51.8 °F 51.8 °F 100% 30.01 in 10.0 mi NW 6.9 mph - N/A   Clear
5:15 PM 50.0 °F 50.0 °F 100% 30.02 in 10.0 mi NW 4.6 mph - N/A   Clear
5:35 PM 50.0 °F 50.0 °F 100% 30.02 in 10.0 mi Calm Calm - N/A   Partly Cloudy
5:55 PM 50.0 °F 50.0 °F 100% 30.02 in 10.0 mi Calm Calm - N/A   Clear
6:15 PM 50.0 °F 50.0 °F 100% 30.02 in 10.0 mi Calm Calm - N/A   Partly Cloudy
6:35 PM 50.0 °F 50.0 °F 100% 30.03 in 10.0 mi Calm Calm - N/A   Mostly Cloudy
6:55 PM 50.0 °F 50.0 °F 100% 30.03 in 10.0 mi Calm Calm - N/A   Mostly Cloudy
7:15 PM 50.0 °F 50.0 °F 100% 30.04 in 10.0 mi Calm Calm - N/A   Overcast
7:35 PM 50.0 °F 50.0 °F 100% 30.04 in 10.0 mi Calm Calm - N/A   Overcast
7:55 PM 50.0 °F 50.0 °F 100% 30.04 in 10.0 mi Calm Calm - N/A   Overcast
8:15 PM 50.0 °F 50.0 °F 100% 30.04 in 10.0 mi Calm Calm - N/A   Overcast
8:35 PM 50.0 °F 50.0 °F 100% 30.04 in 10.0 mi Calm Calm - N/A   Overcast
8:55 PM 50.0 °F 50.0 °F 100% 30.04 in 10.0 mi Calm Calm - N/A   Overcast
9:15 PM 50.0 °F 50.0 °F 100% 30.04 in 10.0 mi SE 5.8 mph - N/A   Overcast
9:35 PM 50.0 °F 50.0 °F 100% 30.04 in 9.0 mi SE 3.5 mph - N/A   Overcast
9:55 PM 50.0 °F 50.0 °F 100% 30.04 in 5.0 mi Calm Calm - N/A   Mostly Cloudy
10:15 PM 48.2 °F 48.2 °F 100% 30.04 in 8.0 mi Calm Calm - N/A   Partly Cloudy
10:35 PM 50.0 °F 50.0 °F 100% 30.05 in 8.0 mi Calm Calm - N/A   Clear
10:55 PM 48.2 °F 48.2 °F 100% 30.05 in 5.0 mi Calm Calm - N/A   Mostly Cloudy
11:15 PM 50.0 °F 50.0 °F 100% 30.05 in 10.0 mi Calm Calm - N/A   Overcast
11:35 PM 50.0 °F 50.0 °F 100% 30.05 in 10.0 mi Calm Calm - N/A   Overcast
11:55 PM 50.0 °F 50.0 °F 100% 30.05 in 8.0 mi Calm Calm - N/A   Overcast